User: anonymous   Login
Location: Belmont
(13.0833°N, 59.6000°W)
Time: 12:34:11
(UTC+00:00)
Language:

Cosmos 2084 Rocket - Orbit

View from above orbital plane
View from above orbital plane
View from above satellite
View from above satellite

Ground track
Ground track

The orbit data is extracted from the following two-line orbital elements,

1 20666U 90055D   19323.63150865 -.00000023 +00000-0 +15636-4 0  9992
2 20666 062.7872 068.9644 0026104 260.3731 099.4413 14.92286282593838
Epoch (UTC): 19 November 2019 15:09:22
Eccentricity: 0.0026104
inclination: 62.7872°
perigee height: 572 km
apogee height: 609 km
right ascension of ascending node: 68.9644°
argument of perigee: 260.3731°
revolutions per day: 14.92286282
mean anomaly at epoch: 99.4413°
orbit number at epoch: 59383

The dashed part of the orbit path shows where the satellite is in the earth's shadow,  

DLR